Location: *
(49.5667°N, 1.3667°W)
Time: 07:46:05
(UTC+00:00)

RESURS DK-1 - Pass Details

Date: 20 September 2019
Orbit: 557 x 561 km, 69.9° (Epoch: 13 October)

Event Time Altitude Azimuth Distance (km) Brightness Sun altitude
Rises 19:23:33 0° 337° (NNW) 2,759 6.5 -12.8°
Reaches altitude 10° 19:26:17 10° 355° (N) 1,859 5.3 -13.2°
Maximum altitude 19:29:21 20° 43° (NE) 1,348 4.1 -13.7°
Enters shadow 19:30:49 17° 70° (ENE) 1,479 4.0 -13.9°
